Location: Brabourne
(51.1333°N, 1.0000°E)
Time: 12:03:49
(UTC+00:00)

IRS-1D - Pass Details

Date: 29 October 2021
Orbit: 739 x 817 km, 98.6° (Epoch: 30 November)

Event Time Altitude Azimuth Distance (km) Brightness Sun altitude
Rises 04:25:19 0° 4° (N) 3,257 6.9 -22.1°
Reaches altitude 10° 04:28:27 10° 345° (NNW) 2,310 5.9 -21.6°
Enters shadow 04:29:30 13° 334° (NNW) 2,084 5.5 -21.5°
